Raicho

decayed
NORAD ID: 65733 Int'l Des: 1998-067 Owner: GIFU/GIDAI Country: J
NOTLE

Über Raicho

Beschreibung wird geladen...

Höhenverlauf

Altitude vs Time

uPlot chart will show altitude changes over time

Zweizeiliger Elementsatz

1 65733U 98067XM 26020.92375749 .09795873 12158-4 14287-2 0 9993
2 65733 51.6117 289.2885 0004779 208.5099 151.5664 16.33783644 19417
Epoch: 20. Jan. 2026 • Age: 1256 hours

Aktueller Status

Position data unavailable
Startdatum 24. Aug. 2025
Alter 0.5 years
Verglühungsdatum 21. Jan. 2026
Typ other

Technische Details

Klassifizierung Payload
Masse 2.00 kg
Trockenmasse 2.00 kg
Gesamtmasse 2.00 kg
Länge 0.20 m
Durchmesser 0.10 m
Spannweite 0.20 m
Form Box
Hersteller GIDAI
Bus-Typ Cubesat 2U
Phasenstatus Reentered
Besitzer/Staat GIFU/GIDAI/J

Große Konstellationen

Loading constellations...